TimeAKDT,TemperatureF,Dew PointF,Humidity,Sea Level PressureIn,VisibilityMPH,Wind Direction,Wind SpeedMPH,Gust SpeedMPH,PrecipitationIn,Events,Conditions,WindDirDegrees,DateUTC
12:16 AM,55.4,48.2,77,29.90,10.0,North,4.6,-,N/A,,Overcast,10,2013-08-04 08:16:00
12:36 AM,55.4,48.2,77,29.90,10.0,Calm,Calm,-,0.01,,Overcast,0,2013-08-04 08:36:00
12:56 AM,55.4,48.2,77,29.90,10.0,Calm,Calm,-,0.01,,Overcast,0,2013-08-04 08:56:00
1:16 AM,55.4,48.2,77,29.90,10.0,Calm,Calm,-,N/A,,Overcast,0,2013-08-04 09:16:00
1:36 AM,55.4,46.4,72,29.90,10.0,NNE,4.6,-,N/A,,Overcast,30,2013-08-04 09:36:00
1:56 AM,55.4,48.2,77,29.90,10.0,Calm,Calm,-,N/A,,Overcast,0,2013-08-04 09:56:00
2:16 AM,55.4,46.4,72,29.90,10.0,Calm,Calm,-,N/A,,Overcast,0,2013-08-04 10:16:00
2:36 AM,55.4,46.4,72,29.91,10.0,Calm,Calm,-,N/A,,Overcast,0,2013-08-04 10:36:00
2:56 AM,53.6,48.2,82,29.91,10.0,Calm,Calm,-,N/A,,Overcast,0,2013-08-04 10:56:00
3:16 AM,53.6,48.2,82,29.91,10.0,Calm,Calm,-,N/A,,Overcast,0,2013-08-04 11:16:00
3:36 AM,53.6,46.4,77,29.91,10.0,Calm,Calm,-,N/A,,Overcast,0,2013-08-04 11:36:00
3:56 AM,55.4,46.4,72,29.91,10.0,ENE,6.9,-,N/A,,Overcast,60,2013-08-04 11:56:00
4:16 AM,55.4,44.6,67,29.91,10.0,ENE,3.5,-,N/A,,Overcast,60,2013-08-04 12:16:00
4:36 AM,55.4,46.4,72,29.91,10.0,Calm,Calm,-,N/A,,Overcast,0,2013-08-04 12:36:00
4:56 AM,55.4,44.6,67,29.91,10.0,Calm,Calm,-,N/A,,Overcast,0,2013-08-04 12:56:00
5:16 AM,55.4,44.6,67,29.91,10.0,NE,3.5,-,N/A,,Overcast,50,2013-08-04 13:16:00
5:36 AM,55.4,44.6,67,29.91,10.0,ENE,3.5,-,N/A,,Overcast,60,2013-08-04 13:36:00
5:56 AM,55.4,44.6,67,29.91,10.0,NE,4.6,-,N/A,,Overcast,40,2013-08-04 13:56:00
6:16 AM,55.4,44.6,67,29.92,10.0,Calm,Calm,-,N/A,,Overcast,0,2013-08-04 14:16:00
6:36 AM,55.4,46.4,72,29.92,10.0,NE,3.5,-,N/A,,Overcast,50,2013-08-04 14:36:00
6:56 AM,55.4,44.6,67,29.92,10.0,NE,3.5,-,N/A,,Overcast,40,2013-08-04 14:56:00
7:16 AM,55.4,44.6,67,29.92,10.0,NE,4.6,-,N/A,,Overcast,50,2013-08-04 15:16:00
7:36 AM,55.4,44.6,67,29.92,10.0,NE,5.8,-,N/A,,Overcast,50,2013-08-04 15:36:00
7:56 AM,55.4,44.6,67,29.93,10.0,ENE,4.6,-,N/A,,Overcast,70,2013-08-04 15:56:00
8:16 AM,55.4,44.6,67,29.93,10.0,ENE,3.5,-,N/A,,Overcast,70,2013-08-04 16:16:00
8:36 AM,55.4,44.6,67,29.93,10.0,NE,4.6,-,N/A,,Overcast,50,2013-08-04 16:36:00
8:56 AM,57.2,44.6,63,29.93,10.0,ENE,5.8,-,N/A,,Overcast,70,2013-08-04 16:56:00
9:16 AM,57.2,44.6,63,29.93,10.0,East,3.5,-,N/A,,Overcast,80,2013-08-04 17:16:00
9:36 AM,57.2,44.6,63,29.94,10.0,Calm,Calm,-,N/A,,Overcast,0,2013-08-04 17:36:00
9:56 AM,57.2,46.4,67,29.94,10.0,Calm,Calm,-,N/A,,Overcast,0,2013-08-04 17:56:00
10:16 AM,57.2,46.4,67,29.94,10.0,ENE,4.6,-,N/A,,Overcast,60,2013-08-04 18:16:00
10:36 AM,59.0,48.2,67,29.95,10.0,Calm,Calm,-,N/A,,Overcast,0,2013-08-04 18:36:00
10:56 AM,60.8,46.4,59,29.95,10.0,Calm,Calm,-,N/A,,Overcast,0,2013-08-04 18:56:00
11:16 AM,60.8,46.4,59,29.95,10.0,West,3.5,-,N/A,,Overcast,270,2013-08-04 19:16:00
11:36 AM,60.8,48.2,63,29.95,10.0,NW,3.5,-,N/A,,Overcast,310,2013-08-04 19:36:00
11:56 AM,62.6,48.2,59,29.95,10.0,NW,3.5,-,N/A,,Overcast,320,2013-08-04 19:56:00
12:16 PM,62.6,48.2,59,29.95,10.0,NNW,4.6,-,N/A,,Overcast,330,2013-08-04 20:16:00
12:36 PM,62.6,48.2,59,29.95,10.0,Calm,Calm,-,N/A,,Overcast,0,2013-08-04 20:36:00
12:56 PM,62.6,48.2,59,29.95,10.0,WNW,5.8,-,N/A,,Overcast,300,2013-08-04 20:56:00
1:16 PM,64.4,48.2,56,29.95,10.0,NNW,3.5,-,N/A,,Overcast,330,2013-08-04 21:16:00
1:36 PM,64.4,48.2,56,29.95,10.0,WNW,3.5,-,N/A,,Overcast,300,2013-08-04 21:36:00
1:56 PM,64.4,46.4,52,29.95,10.0,WNW,4.6,-,N/A,,Overcast,300,2013-08-04 21:56:00
2:16 PM,64.4,46.4,52,29.95,10.0,Calm,Calm,-,N/A,,Overcast,0,2013-08-04 22:16:00
2:36 PM,64.4,48.2,56,29.95,10.0,WSW,3.5,-,N/A,,Overcast,240,2013-08-04 22:36:00
2:56 PM,62.6,48.2,59,29.95,10.0,SW,4.6,-,N/A,,Overcast,220,2013-08-04 22:56:00
3:16 PM,62.6,48.2,59,29.95,10.0,SW,5.8,-,N/A,,Overcast,230,2013-08-04 23:16:00
3:36 PM,64.4,46.4,52,29.95,10.0,Calm,Calm,-,N/A,,Overcast,0,2013-08-04 23:36:00
3:56 PM,64.4,46.4,52,29.94,10.0,Calm,Calm,-,N/A,,Overcast,0,2013-08-04 23:56:00
4:16 PM,64.4,46.4,52,29.94,10.0,Calm,Calm,-,N/A,,Overcast,0,2013-08-05 00:16:00
4:36 PM,64.4,46.4,52,29.94,10.0,Calm,Calm,-,N/A,,Overcast,0,2013-08-05 00:36:00
4:56 PM,66.2,46.4,49,29.94,10.0,Calm,Calm,-,N/A,,Overcast,0,2013-08-05 00:56:00
5:16 PM,66.2,46.4,49,29.94,10.0,Calm,Calm,-,N/A,,Mostly Cloudy,0,2013-08-05 01:16:00
5:36 PM,64.4,46.4,52,29.94,10.0,West,4.6,-,N/A,,Overcast,260,2013-08-05 01:36:00
5:56 PM,64.4,46.4,52,29.95,10.0,SW,4.6,-,N/A,,Overcast,220,2013-08-05 01:56:00
6:16 PM,64.4,46.4,52,29.95,10.0,South,3.5,-,N/A,,Overcast,190,2013-08-05 02:16:00
6:36 PM,64.4,48.2,56,29.95,10.0,WSW,4.6,-,N/A,,Overcast,240,2013-08-05 02:36:00
6:56 PM,64.4,46.4,52,29.95,10.0,WSW,4.6,-,N/A,,Overcast,250,2013-08-05 02:56:00
7:16 PM,62.6,48.2,59,29.95,10.0,WSW,4.6,-,N/A,,Overcast,250,2013-08-05 03:16:00
7:36 PM,64.4,46.4,52,29.95,10.0,Calm,Calm,-,N/A,,Overcast,0,2013-08-05 03:36:00
7:56 PM,64.4,46.4,52,29.95,10.0,West,3.5,-,N/A,,Overcast,260,2013-08-05 03:56:00
8:16 PM,62.6,46.4,55,29.95,10.0,Calm,Calm,-,N/A,,Overcast,0,2013-08-05 04:16:00
8:36 PM,62.6,48.2,59,29.95,10.0,Calm,Calm,-,N/A,,Overcast,0,2013-08-05 04:36:00
8:56 PM,62.6,50.0,63,29.95,10.0,NE,3.5,-,N/A,,Overcast,40,2013-08-05 04:56:00
9:16 PM,60.8,51.8,72,29.96,10.0,ENE,4.6,-,N/A,,Overcast,60,2013-08-05 05:16:00
9:36 PM,60.8,51.8,72,29.96,10.0,Calm,Calm,-,N/A,,Overcast,0,2013-08-05 05:36:00
9:56 PM,60.8,50.0,68,29.95,10.0,Calm,Calm,-,N/A,,Overcast,0,2013-08-05 05:56:00
10:16 PM,59.0,48.2,67,29.95,10.0,Calm,Calm,-,N/A,,Overcast,0,2013-08-05 06:16:00
10:36 PM,59.0,48.2,67,29.96,10.0,ENE,4.6,-,N/A,,Overcast,60,2013-08-05 06:36:00
10:56 PM,57.2,46.4,67,29.96,10.0,ENE,3.5,-,N/A,,Overcast,70,2013-08-05 06:56:00
11:16 PM,57.2,46.4,67,29.96,10.0,Calm,Calm,-,N/A,,Overcast,0,2013-08-05 07:16:00
11:36 PM,57.2,46.4,67,29.97,10.0,ENE,4.6,-,N/A,,Overcast,60,2013-08-05 07:36:00
11:56 PM,57.2,46.4,67,29.97,10.0,ENE,3.5,-,N/A,,Overcast,70,2013-08-05 07:56:00